#timestamp,LO_Frequency,Hit 
1498226415.6,286047006.7,N
1498226435.4,286047007.4,N
1498226455.2,286047006.1,N
1498226475.1,286047009.2,N
1498226476.0,286047009.2,N
1498226495.8,286047007.0,N
1498226515.7,286047006.4,N
1498226535.5,286047006.1,N
1498226555.3,286047008.4,N
1498226575.2,286047006.5,N
1498226595.0,286047006.1,N
1498226595.9,286047006.1,N
1498226615.7,286047006.7,N
1498226635.6,286047007.3,N
1498226655.4,286047004.5,N
1498226675.3,286047005.3,N
1498226695.1,286047005.7,N
1498226696.0,286047005.7,N
1498226715.8,286047004.8,N
1498226735.7,286047004.9,N
1498226755.5,286047007.3,N
1498226775.3,286047007.6,N
1498226795.2,286047006.4,N
1498226815.0,286047004.9,N
1498226815.9,286047004.9,N
1498226835.8,286047004.9,N
1498226855.6,286047004.6,N
1498226875.4,286047007.5,N
1498226895.3,286047006.7,N
1498226915.1,286047006.4,N
1498226935.9,286047007.5,N
1498226955.7,286047006.8,N
1498226975.5,286047005.1,N
1498226995.4,286047004.7,N
1498227015.2,286047007.6,N
1498227035.0,286047004.5,N
1498227035.9,286047004.5,N
1498227055.8,286047004.6,N
1498227075.6,286047009.2,N
1498227095.5,286047008.9,N
1498227115.3,286047008.6,N
1498227135.1,286047008.4,N
1498227155.9,286047009.2,N
1498227175.7,286047008.4,N
1498227195.5,286047006.6,N
1498227215.4,286047007.4,N
1498227235.2,286047006.6,N
1498227255.1,286047009.2,N
1498227256.0,286047009.2,N
1498227275.8,286047008.2,N
1498227295.6,286047008.1,N
1498227315.5,286047007.8,N
1498227335.3,286047008.2,N
1498227355.1,286047009.1,N
1498227375.9,286047008.8,N
1498227395.7,286047008.7,N
1498227415.6,286047009.2,N
1498227435.4,286047006.5,N
1498227455.2,286047008.7,N
1498227475.1,286047006.7,N
1498227476.0,286047006.7,N
1498227495.8,286047008.8,N
1498227515.6,286047008.0,N
1498227535.5,286047008.7,N
1498227555.3,286047008.5,N
1498227575.2,286047010.8,N
1498227595.9,286047010.7,N
1498227615.7,286047008.9,N
1498227635.6,286047008.3,N
1498227655.4,286047008.1,N
1498227675.3,286047008.4,N
1498227695.1,286047010.7,N
1498227696.0,286047010.7,N
1498227715.8,286047010.8,N
1498227735.7,286047008.3,N
1498227755.5,286047008.4,N
1498227775.3,286047008.8,N
1498227795.2,286047009.0,N
1498227815.0,286047008.2,N
1498227815.9,286047008.2,N
1498227835.8,286047008.4,N
1498227855.6,286047010.3,N
1498227875.4,286047010.0,N
1498227895.3,286047007.8,N
1498227915.1,286047010.4,N
1498227935.8,286047010.2,N
1498227955.7,286047009.6,N
1498227975.5,286047010.6,N
1498227995.4,286047010.8,N
1498228015.2,286047010.1,N
1498228035.0,286047010.8,N
1498228035.9,286047010.8,N
1498228055.8,286047010.4,N
1498228075.6,286047010.8,N
1498228095.4,286047007.7,N
1498228115.3,286047007.8,N
1498228135.1,286047010.1,N
1498228155.9,286047010.3,N
1498228175.7,286047008.0,N
1498228195.5,286047008.1,N
1498228215.4,286047008.3,N
1498228235.2,286047010.8,N
1498228255.0,286047010.4,N
1498228255.9,286047010.4,N
1498228275.8,286047010.7,N
1498228295.6,286047010.7,N
1498228315.5,286047008.0,N
1498228335.3,286047008.7,N
1498228355.1,286047009.2,N
1498228375.9,286047006.7,N
1498228395.7,286047008.6,N
1498228415.5,286047008.9,N
1498228435.4,286047008.8,N
1498228455.2,286047008.9,N
1498228475.1,286047008.8,N
1498228476.0,286047008.8,N
1498228495.8,286047006.5,N
1498228515.6,286047006.7,N
1498228535.5,286047006.2,N
1498228555.3,286047008.8,N
1498228575.1,286047006.6,N
1498228595.9,286047006.9,N
1498228615.7,286047006.5,N
1498228635.6,286047007.0,N
1498228655.4,286047006.1,N
1498228675.2,286047006.9,N
1498228695.1,286047006.7,N
1498228696.0,286047006.7,N
1498228715.8,286047009.1,N
1498228735.7,286047007.0,N
1498228755.5,286047010.8,N
1498228775.3,286047012.4,N
1498228795.2,286047010.0,N
1498228815.9,286047010.4,N
1498228835.7,286047010.5,N
1498228855.6,286047010.6,N
1498228875.4,286047010.4,N
1498228895.3,286047007.8,N
1498228915.1,286047008.1,N
1498228916.0,286047008.1,N
1498228935.8,286047008.9,N
1498228955.7,286047009.2,N
1498228975.5,286047008.9,N
1498228995.3,286047008.8,N
1498229015.2,286047009.0,N
1498229035.0,286047008.0,N
1498229035.9,286047008.0,N
1498229055.8,286047008.7,N
1498229075.6,286047008.9,N
1498229095.4,286047006.6,N
1498229115.3,286047007.9,N
1498229135.1,286047010.7,N
1498229155.8,286047008.5,N
1498229175.7,286047009.1,N
1498229195.5,286047009.0,N
1498229215.4,286047010.1,N
1498229235.2,286047007.8,N
1498229255.0,286047008.4,N
1498229255.9,286047008.4,N
1498229275.8,286047008.5,N
1498229295.6,286047008.0,N
1498229315.4,286047010.5,N
1498229335.3,286047010.7,N
1498229355.1,286047009.9,N
1498229375.9,286047010.5,N
1498229395.7,286047010.4,N
1498229415.5,286047008.3,N
1498229435.4,286047008.1,N
1498229455.2,286047008.2,N
1498229475.0,286047007.8,N
1498229476.0,286047007.8,N
1498229495.8,286047010.7,N
1498229515.6,286047007.8,N
1498229535.5,286047007.8,N
1498229555.3,286047008.2,N
1498229575.1,286047008.3,N
1498229595.9,286047008.5,N
1498229615.7,286047008.6,N
1498229635.6,286047008.1,N
1498229655.4,286047007.7,N
1498229675.2,286047010.5,N
1498229695.1,286047009.6,N
1498229696.0,286047009.6,N
1498229715.8,286047012.3,N
1498229735.6,286047009.9,N
1498229755.5,286047011.2,N
1498229775.3,286047012.2,N
1498229795.2,286047011.2,N
1498229815.9,286047009.7,N
1498229835.7,286047010.4,N
1498229855.6,286047010.6,N
1498229875.4,286047010.1,N
1498229895.2,286047009.4,N
1498229915.1,286047009.6,N
1498229916.0,286047009.6,N
1498229935.8,286047012.3,N
1498229955.7,286047009.3,N
1498229975.5,286047012.4,N
1498229995.3,286047010.0,N
